Tracking 28518 objects as of 2-Mar-2024
HD Live streaming from Space Station
objects crossing your sky now

OPS 8068

Track OPS 8068 now!
10-day predictions
OPS 8068 is classified as:


NORAD ID: 1580
Int'l Code: 1965-072A
Perigee: 637.5 km
Apogee: 971.3 km
Inclination: 98.3 °
Period: 100.8 minutes
Semi major axis: 7175 km
RCS: 0.631 m2 (medium)
Launch date: September 10, 1965
Source: United States (US)
Launch site: AIR FORCE WESTERN TEST RANGE (AFWTR)
Your satellite tracking list
Your tracking list is empty




NASA's NSSDC Master Catalog

Two Line Element Set (TLE):
1 01580U 65072A   24061.46505956  .00000237  00000-0  85523-4 0  9996
2 01580  98.3356 239.0403 0232568   2.0190 358.1877 14.28352503 13364
Source of the keplerian elements: AFSPC